SCP
0 0 0 0 0 0 0 0 0 0 0 0 0 0 0 0 0 0 0 0 0 0 0 0 0 0 0 0 0 0 0 0 0 0 0 0 0 0 0 0 0 0 0
0 0 0 0 0 0 0 0 0 0 0 0 0 0 0 0 0 0 0 0 0 0 0 0 0 0 0 0 0 0 0 0 0 0 0 0 0 0 0 0 0 0 0
0 0 0 0 0 0 0 0 0 0 0 0 0 0 0 0 0 0 0 0 0 0 0 0 0 0 0 0 0 0 0 0 0 0 0 0 0 0 0 0 0 0 0
0 0 0 0 0 0 0 0 0 0 0 0 0 0 0 0 0 0 0 0 0 0 0 0 0 0 0 0 0 0 0 0 0 0 0 0 0 0 0 0 0 0 0
0 0 0 0 0 0 0 0 0 0 0 0 0 0 0 0 0 0 0 0 0 0 0 0 0 0 0 0 0 0 0 0 0 0 0 0 0 0 0 0 0 0 0
0 0 0 0 0 0 0 0 0 0 0 0 0 0 0 0 0 0 0 0 0 0 0 0 0 0 0 0 0 0 0 0 0 0 0 0 0 0 0 0 0 0 0
0 0 0 0 0 0 0 0 0 0 0 0 0 0 0 0 0 0 0 0 0 0 0 0 0 0 0 0 0 0 0 0 0 0 0 0 0 0 0 0 0 0 0
0 0 0 0 0 0 0 0 0 0 0 0 0 0 0 0 0 0 0 0 0 0 0 0 0 0 0 0 0 0 0 0 0 0 0 0 0 0 0 0 0 0 0
0 0 0 0 0 0 0 0 0 0 0 0 0 0 0 0 0 0 0 0 0 0 0 0 0 0 0 0 0 0 0 0 0 0 0 0 0 0 0 0 0 0 0
0 0 0 0 0 0 0 0 0 0 0 0 0 0 0 0 0 0 0 0 0 0 0 0 0 0 0 0 0 0 0 0 0 0 0 0 0 0 0 0 0 0 0
0 0 0 0 0 0 0 0 0 0 0 0 0 0 0 0 0 0 0 0 0 0 0 0 0 0 0 0 0 0 0 0 0 0 0 0 0 0 0 0 0 0 0
0 0 0 0 0 0 0 0 0 0 0 0 0 0 0 0 0 0 0 0 0 0 0 0 0 0 0 0 0 0 0 0 0 0 0 0 0 0 0 0 0 0 0
0 0 0 0 0 0 0 0 0 0 0 0 0 0 0 0 0 0 0 0 0 0 0 0 0 0 0 0 0 0 0 0 0 0 0 0 0 0 0 0 0 0 0
0 0 0 0 0 0 0 0 0 0 0 0 0 0 0 0 0 0 0 0 0 0 0 0 0 0 0 0 0 0 0 0 0 0 0 0 0 0 0 0 0 0 0
0 0 0 0 0 0 0 0 0 0 0 0 0 0 0 0 0 0 0 0 0 0 0 0 0 0 0 0 0 0 0 0 0 0 0 0 0 0 0 0 0 0 0
0 0 0 0 0 0 0 0 0 0 0 0 0 0 0 0 0 0 0 0 0 0 0 0 0 0 0 0 0 0 0 0 0 0 0 0 0 0 0 0 0 0 0
0 0 0 0 0 0 0 0 0 0 0 0 0 0 0 0 0 0 0 0 0 0 0 0 0 0 0 0 0 0 0 0 0 0 0 0 0 0 0 0 0 0 0
0 0 0 0 0 0 0 0 0 0 0 0 0 0 0 0 0 0 0 0 0 0 0 0 0 0 0 0 0 0 0 0 0 0 0 0 0 0 0 0 0 0 0
0 0 0 0 0 0 0 0 0 0 0 0 0 0 0 0 0 0 0 0 0 0 0 0 0 0 0 0 0 0 0 0 0 0 0 0 0 0 0 0 0 0 0
0 0 0 0 0 0 0 0 0 0 0 0 0 0 0 0 0 0 0 0 0 0 0 0 0 0 0 0 0 0 0 0 0 0 0 0 0 0 0 0 0 0 0
0 0 0 0 0 0 0 0 0 0 0 0 0 0 0 0 0 0 0 0 0 0 0 0 0 0 0 0 0 0 0 0 0 0 0 0 0 0 0 0 0 0 0
0 0 0 0 0 0 0 0 0 0 0 0 0 0 0 0 0 0 0 0 0 0 0 0 0 0 0 0 0 0 0 0 0 0 0 0 0 0 0 0 0 0 0
0 0 0 0 0 0 0 0 0 0 0 0 0 0 0 0 0 0 0 0 0 0 0 0 0 0 0 0 0 0 0 0 0 0 0 0 0 0 0 0 0 0 0
0 0 0 0 0 0 0 0 0 0 0 0 0 0 0 0 0 0 0 0 0 0 0 0 0 0 0 0 0 0 0 0 0 0 0 0 0 0 0 0 0 0 0
0 0 0 0 0 0 0 0 0 0 0 0 0 0 0 0 0 0 0 0 0 0 0 0 0 0 0 0 0 0 0 0 0 0 0 0 0 0 0 0 0 0 0
0 0 0 0 0 0 0 0 0 0 0 0 0 0 0 0 0 0 0 0 0 0 0 0 0 0 0 0 0 0 0 0 0 0 0 0 0 0 0 0 0 0 0
Wind_Speed
1 2 6 7 7 7 8 8 8 8 9 9 10 10 10 10 11 11 11 11 11 11 11 12 11 10 10 10 10 10 10 10 9 10 9 9 9 8 8 8 7 5 8
4 3 7 7 7 7 7 7 8 8 8 9 9 10 10 10 10 10 10 11 11 11 11 12 11 10 10 10 10 10 10 9 9 9 9 8 8 8 8 8 7 5 8
5 4 5 7 7 7 7 7 7 7 8 8 9 10 10 9 10 10 10 11 11 11 11 11 11 11 10 10 9 9 9 9 9 9 8 4 5 8 8 7 7 7 7
6 4 5 7 7 8 7 7 6 7 8 8 9 10 10 9 9 10 10 10 10 10 11 11 11 11 10 10 10 10 9 9 9 8 4 3 3 7 7 7 8 8 7
6 4 5 8 8 8 7 6 6 6 7 9 10 10 10 10 10 10 10 10 10 10 10 10 10 10 10 10 11 11 11 10 10 7 4 3 3 7 7 7 7 7 7
5 4 5 8 8 8 7 7 7 7 9 10 11 10 10 10 10 10 10 10 10 10 10 10 9 9 10 10 10 11 11 11 9 5 4 3 3 6 7 7 7 7 7
5 4 5 8 8 8 8 8 8 9 11 11 11 11 10 10 10 10 10 10 10 9 9 9 8 9 9 10 10 11 11 11 7 5 4 3 4 7 7 7 7 7 6
6 4 4 8 9 8 8 9 10 11 12 12 11 10 10 10 10 10 10 10 9 9 9 8 8 8 9 10 10 11 11 10 7 6 4 3 7 8 8 7 7 6 6
6 4 3 3 4 7 8 8 9 10 10 10 10 10 9 9 9 9 9 9 9 8 8 8 7 8 9 9 10 11 12 11 5 3 4 3 7 9 9 8 7 6 6
4 4 3 2 2 2 3 6 7 8 8 8 8 8 8 7 7 8 7 7 7 7 7 6 7 7 8 9 10 11 11 9 5 4 2 4 8 9 9 8 8 8 7
4 3 3 2 1 1 2 3 4 5 5 5 5 6 5 3 3 3 4 6 6 6 6 6 6 7 7 8 9 10 8 4 4 3 2 6 9 9 9 8 8 9 8
3 3 3 2 2 1 2 2 1 1 2 2 2 2 2 2 1 2 3 4 4 4 5 5 6 6 6 3 6 7 3 4 3 2 3 8 9 9 9 9 9 9 8
4 4 3 3 2 2 1 1 1 1 1 1 2 2 2 2 1 1 1 1 2 3 3 4 4 3 3 3 3 3 3 3 2 2 4 9 9 9 9 9 9 9 9
3 2 2 3 3 2 2 1 1 1 1 1 1 2 2 2 1 1 1 1 1 1 2 2 2 3 3 4 4 4 4 3 2 2 3 8 9 9 10 10 10 9 9
4 3 3 4 3 3 2 1 1 1 1 1 1 1 3 2 2 1 1 1 1 1 2 2 2 3 3 3 3 4 4 3 3 2 2 6 8 8 9 9 9 9 8
3 2 2 3 3 3 2 1 1 1 1 1 1 1 2 2 2 2 1 1 1 1 1 2 2 3 2 3 3 3 3 2 2 2 2 3 6 7 8 8 8 8 8
3 2 2 3 3 3 2 2 2 1 2 2 1 2 2 2 3 2 2 1 1 1 2 3 3 3 3 3 3 3 2 2 2 2 2 1 2 4 7 8 8 7 8
3 3 2 3 3 3 2 2 1 2 2 2 2 2 2 3 3 2 2 1 1 2 2 3 2 2 2 2 2 1 2 2 2 1 1 1 1 1 3 6 6 6 7
4 4 3 3 4 3 3 2 2 2 2 2 2 2 2 3 3 3 2 1 2 2 2 2 2 2 2 2 1 1 1 1 1 1 1 1 1 1 1 2 5 5 5
4 4 4 3 3 3 2 2 2 2 2 2 2 2 2 2 3 2 2 2 2 2 2 2 2 2 1 1 2 2 2 1 1 1 1 1 1 1 1 2 2 2 4
3 3 3 3 2 3 2 2 2 1 1 1 1 2 2 2 2 3 2 2 2 2 2 2 2 2 2 1 2 2 3 3 2 1 1 1 1 1 1 1 1 1 1
4 3 3 3 3 2 2 2 2 1 1 1 0 1 1 2 2 2 2 2 2 2 2 2 2 2 1 1 2 2 2 3 3 2 1 1 1 1 1 2 1 1 1
4 4 4 3 3 3 3 2 2 2 2 1 1 1 1 1 1 2 2 2 2 2 2 1 2 3 1 1 1 3 2 2 2 2 2 2 2 1 1 1 1 1 1
5 3 3 3 3 3 3 3 3 2 1 1 1 0 0 0 1 1 2 2 2 2 2 1 2 2 2 1 1 0 1 3 2 1 2 2 2 2 1 1 1 0 0
5 4 3 3 3 2 3 4 3 2 1 1 0 1 1 1 0 0 1 1 1 2 2 2 2 2 2 2 1 1 1 1 2 2 1 2 2 2 1 1 0 0 0
4 4 3 4 3 3 3 3 3 3 2 2 2 1 0 0 0 1 0 1 1 1 2 2 2 2 2 2 1 1 2 2 2 2 2 1 1 2 1 1 1 0 0
Wind_Direction
164 173 123 109 103 97 93 92 89 89 87 87 86 83 82 80 78 78 79 78 76 74 71 70 77 82 84 86 89 90 91 93 96 98 99 96 96 98 99 97 96 95 92
157 147 118 109 104 101 98 96 92 91 91 90 90 88 84 82 81 81 82 81 79 76 73 72 74 80 84 85 87 88 90 92 93 99 98 94 93 96 99 97 96 95 96
135 130 119 112 108 103 99 98 95 95 96 95 94 92 88 85 83 84 84 83 81 78 78 76 75 76 79 83 84 86 88 91 95 100 97 86 93 98 100 101 103 102 100
133 129 122 116 110 104 100 97 96 99 103 102 98 95 92 89 87 87 86 84 82 80 79 79 78 77 76 75 77 80 84 87 95 98 87 76 85 98 100 100 101 99 94
124 123 127 120 112 108 101 95 98 109 114 113 107 102 97 91 87 87 84 83 84 83 81 80 79 78 76 75 75 75 79 83 88 83 75 74 73 91 93 94 98 97 95
124 125 130 121 117 110 99 90 97 106 117 119 111 106 100 94 90 89 86 84 85 84 81 81 81 79 78 76 74 74 78 81 79 69 66 71 70 85 87 89 91 94 96
129 129 131 124 120 113 100 89 97 102 111 115 112 107 102 98 95 93 91 87 84 84 83 81 82 80 78 77 77 77 82 84 76 73 68 66 74 82 87 88 90 91 90
133 131 132 128 124 116 106 96 95 100 104 110 111 108 103 100 97 95 94 91 87 86 83 82 82 81 80 78 78 80 81 82 79 74 67 68 81 80 82 88 89 94 94
130 124 114 120 123 121 115 109 106 106 106 109 112 111 107 103 100 97 96 95 92 89 84 81 81 81 79 78 78 79 79 78 68 62 76 70 84 85 83 81 83 85 90
126 128 123 111 104 111 115 119 114 113 114 115 117 117 115 110 105 101 98 95 96 94 87 82 80 81 82 78 77 78 79 75 60 54 57 82 87 86 85 83 80 77 85
132 136 134 128 121 127 133 130 120 120 117 119 120 120 111 99 98 98 106 103 100 95 88 84 80 81 77 74 77 79 76 67 62 51 53 85 88 84 82 82 81 78 80
142 144 140 143 156 146 134 104 93 102 98 101 109 115 110 113 120 119 108 109 100 86 77 77 79 71 64 60 71 74 69 69 58 53 70 83 85 84 81 79 80 81 80
145 139 142 149 152 137 110 112 85 80 94 109 126 133 125 114 101 89 68 68 62 66 51 48 54 54 61 69 72 73 74 72 55 45 66 81 83 85 81 76 78 80 82
112 132 148 145 141 133 118 121 114 99 96 103 128 133 127 120 115 117 110 78 56 62 63 49 56 68 75 77 83 82 78 78 71 53 66 80 81 84 84 78 74 75 79
116 142 162 150 144 140 126 131 123 117 117 125 111 123 133 132 133 132 143 124 93 87 90 82 75 82 85 85 90 96 90 86 80 69 61 79 82 82 83 79 75 74 82
138 143 135 128 138 132 127 132 137 128 116 105 115 127 133 135 134 131 116 104 93 97 103 101 96 91 88 88 87 96 100 95 81 74 59 67 81 84 85 83 77 74 81
159 140 137 133 122 122 125 128 119 104 95 92 98 104 102 114 124 124 110 93 89 95 99 90 81 80 85 80 76 83 98 97 94 81 69 49 54 78 86 86 80 76 79
132 121 132 116 109 115 116 106 94 90 85 86 85 83 82 98 112 115 111 104 96 98 101 100 88 84 78 78 72 61 74 92 103 110 85 76 53 58 77 88 86 81 82
142 133 123 113 112 111 108 96 87 88 83 81 75 70 71 86 99 110 112 101 92 91 96 111 93 102 101 87 85 64 47 60 86 104 90 112 90 73 58 82 90 89 86
138 130 124 117 122 116 103 84 66 69 69 69 76 72 77 80 91 102 103 90 91 91 83 89 97 83 101 110 92 60 26 13 33 57 81 87 88 91 77 64 55 55 74
130 125 123 121 135 126 113 107 101 93 70 59 67 81 88 86 97 103 95 92 88 100 113 111 105 90 70 79 77 35 9 15 26 9 27 59 54 57 76 83 67 49 36
154 145 139 138 144 148 140 143 153 150 142 147 85 76 94 109 111 121 114 113 106 99 87 85 94 101 68 72 112 96 18 354 353 6 7 37 20 47 69 88 85 87 64
159 165 165 166 154 153 138 113 88 63 42 28 11 22 22 93 109 121 133 134 126 121 127 123 121 123 135 3 93 134 141 208 307 335 355 14 13 37 24 54 85 98 113
181 174 167 164 153 151 139 131 134 141 160 217 220 209 357 87 101 106 127 136 141 136 149 171 140 135 135 154 351 64 153 156 148 310 334 352 9 18 360 26 61 37 113
174 170 168 157 152 156 153 150 151 153 184 178 168 105 46 12 73 115 145 138 150 158 172 176 154 145 142 160 177 162 105 91 120 142 228 317 347 337 345 337 24 7 26
168 162 154 155 163 165 164 163 164 169 171 145 159 147 193 315 314 325 173 158 171 176 182 186 172 157 155 157 163 166 166 161 176 159 175 216 279 301 325 342 359 315 295